• In Hungary
  • List of Countries
  • For 7 days
  • Water Temperature
  • Satellite Maps
  • Weather Map
  • News
  • Weather Widgets
  • user-avatar
    Login

    Hourly Weather Karpasia

    Today, 23 September, Sunday

    Time Temperature Precipitation Wind Pressure Humidity
    00:00 +27°C° 0 mm 4 mps 751 mmHg 62%
    01:00 +27°C° 0 mm 4 mps 751 mmHg 61%
    02:00 +27°C° 0 mm 4 mps 751 mmHg 61%
    03:00 +26°C° 0 mm 4 mps 751 mmHg 61%
    04:00 +26°C° 0 mm 3 mps 751 mmHg 61%
    05:00 +26°C° 0 mm 3 mps 751 mmHg 62%
    06:00 +27°C° 0 mm 3 mps 751 mmHg 54%
    07:00 +29°C° 0 mm 3 mps 751 mmHg 47%
    08:00 +30°C° 0 mm 2 mps 751 mmHg 39%
    09:00 +32°C° 0 mm 2 mps 752 mmHg 36%
    10:00 +34°C° 0 mm 3 mps 752 mmHg 32%
    11:00 +35°C° 0 mm 3 mps 752 mmHg 29%
    12:00 +35°C° 0 mm 3 mps 752 mmHg 30%
    13:00 +36°C° 0 mm 3 mps 752 mmHg 31%
    14:00 +36°C° 0 mm 3 mps 752 mmHg 32%
    15:00 +35°C° 0 mm 4 mps 751 mmHg 36%
    16:00 +34°C° 0 mm 4 mps 751 mmHg 40%
    17:00 +34°C° 0 mm 4 mps 751 mmHg 43%
    18:00 +33°C° 0 mm 3 mps 751 mmHg 50%
    19:00 +30°C° 0 mm 3 mps 751 mmHg 56%
    20:00 +29°C° 0 mm 3 mps 752 mmHg 62%
    21:00 +29°C° 0 mm 3 mps 752 mmHg 63%
    22:00 +29°C° 0 mm 3 mps 752 mmHg 64%
    23:00 +28°C° 0 mm 3 mps 752 mmHg 65%

    Tomorrow, 24 September, Monday

    Time Temperature Precipitation Wind Pressure Humidity
    00:00 +28°C° 0 mm 3 mps 752 mmHg 63%
    01:00 +27°C° 0 mm 3 mps 752 mmHg 60%
    02:00 +27°C° 0 mm 3 mps 751 mmHg 58%
    03:00 +27°C° 0 mm 2 mps 751 mmHg 55%
    04:00 +26°C° 0 mm 2 mps 751 mmHg 52%
    05:00 +26°C° 0 mm 2 mps 751 mmHg 49%
    06:00 +28°C° 0 mm 1 mps 751 mmHg 43%
    07:00 +29°C° 0 mm 1 mps 751 mmHg 38%
    08:00 +31°C° 0 mm 1 mps 752 mmHg 32%
    09:00 +33°C° 0 mm 1 mps 751 mmHg 30%
    10:00 +34°C° 0 mm 1 mps 751 mmHg 28%
    11:00 +35°C° 0 mm 1 mps 751 mmHg 26%
    12:00 +36°C° 0 mm 2 mps 751 mmHg 27%
    13:00 +37°C° 0 mm 2 mps 750 mmHg 29%
    14:00 +37°C° 0 mm 3 mps 750 mmHg 30%
    15:00 +36°C° 0 mm 3 mps 750 mmHg 34%
    16:00 +35°C° 0 mm 3 mps 750 mmHg 38%
    17:00 +34°C° 0 mm 3 mps 749 mmHg 42%
    18:00 +33°C° 0 mm 3 mps 749 mmHg 47%
    19:00 +31°C° 0 mm 3 mps 750 mmHg 52%
    20:00 +30°C° 0 mm 3 mps 750 mmHg 57%
    21:00 +29°C° 0 mm 3 mps 750 mmHg 58%
    22:00 +29°C° 0 mm 3 mps 750 mmHg 59%
    23:00 +28°C° 0 mm 3 mps 750 mmHg 59%

    Day after tomorrow, 25 September, Tuesday

    Time Temperature Precipitation Wind Pressure Humidity
    00:00 +28°C° 0 mm 3 mps 750 mmHg 60%
    01:00 +27°C° 0 mm 3 mps 749 mmHg 60%
    02:00 +27°C° 0 mm 3 mps 749 mmHg 60%
    03:00 +27°C° 0 mm 3 mps 749 mmHg 60%
    04:00 +26°C° 0 mm 3 mps 749 mmHg 59%
    05:00 +26°C° 0 mm 2 mps 749 mmHg 58%
    06:00 +28°C° 0 mm 2 mps 749 mmHg 52%
    07:00 +29°C° 0 mm 2 mps 749 mmHg 45%
    08:00 +31°C° 0 mm 2 mps 749 mmHg 38%
    09:00 +32°C° 0 mm 2 mps 749 mmHg 36%
    10:00 +34°C° 0 mm 2 mps 749 mmHg 35%
    11:00 +35°C° 0 mm 3 mps 749 mmHg 33%
    12:00 +36°C° 0 mm 3 mps 749 mmHg 34%
    13:00 +36°C° 0 mm 4 mps 748 mmHg 36%
    14:00 +36°C° 0 mm 4 mps 748 mmHg 38%
    15:00 +35°C° 0 mm 4 mps 748 mmHg 41%
    16:00 +34°C° 0 mm 4 mps 748 mmHg 45%
    17:00 +33°C° 0 mm 4 mps 748 mmHg 49%
    18:00 +32°C° 0 mm 4 mps 748 mmHg 55%
    19:00 +30°C° 0 mm 4 mps 748 mmHg 61%
    20:00 +29°C° 0 mm 4 mps 748 mmHg 67%
    21:00 +29°C° 0 mm 4 mps 748 mmHg 68%
    22:00 +28°C° 0 mm 4 mps 748 mmHg 70%
    23:00 +28°C° 0 mm 4 mps 748 mmHg 72%

    26 September, Wednesday

    Time Temperature Precipitation Wind Pressure Humidity
    00:00 +27°C° 0 mm 4 mps 747 mmHg 71%
    01:00 +27°C° 0 mm 4 mps 747 mmHg 71%
    02:00 +26°C° 0 mm 4 mps 747 mmHg 71%
    03:00 +26°C° 0 mm 3 mps 747 mmHg 71%
    04:00 +26°C° 0 mm 3 mps 747 mmHg 71%
    05:00 +25°C° 0 mm 2 mps 747 mmHg 70%
    06:00 +27°C° 0 mm 2 mps 747 mmHg 65%
    07:00 +28°C° 0 mm 2 mps 748 mmHg 59%
    08:00 +29°C° 0 mm 1 mps 748 mmHg 53%
    09:00 +30°C° 0 mm 2 mps 748 mmHg 48%
    10:00 +32°C° 0 mm 2 mps 748 mmHg 44%
    11:00 +34°C° 0 mm 2 mps 748 mmHg 39%
    12:00 +34°C° 0 mm 2 mps 748 mmHg 40%
    13:00 +34°C° 0 mm 2 mps 747 mmHg 40%
    14:00 +34°C° 0 mm 2 mps 747 mmHg 41%
    15:00 +32°C° 0 mm 2 mps 747 mmHg 44%
    16:00 +32°C° 0 mm 2 mps 747 mmHg 47%
    17:00 +31°C° 0 mm 2 mps 747 mmHg 50%
    18:00 +30°C° 0 mm 2 mps 747 mmHg 53%
    19:00 +29°C° 0 mm 3 mps 747 mmHg 56%
    20:00 +29°C° 0 mm 3 mps 747 mmHg 59%
    21:00 +28°C° 0 mm 3 mps 747 mmHg 62%
    22:00 +28°C° 0 mm 3 mps 747 mmHg 64%
    23:00 +27°C° 0 mm 3 mps 747 mmHg 66%

    27 September, Thursday

    Time Temperature Precipitation Wind Pressure Humidity
    00:00 +27°C° 0 mm 3 mps 747 mmHg 67%
    01:00 +26°C° 0 mm 3 mps 747 mmHg 67%
    02:00 +26°C° 0 mm 4 mps 747 mmHg 67%
    03:00 +26°C° 0 mm 4 mps 747 mmHg 68%
    04:00 +25°C° 0 mm 4 mps 747 mmHg 70%
    05:00 +25°C° 0 mm 5 mps 747 mmHg 71%
    06:00 +26°C° 0 mm 5 mps 747 mmHg 67%
    07:00 +27°C° 0 mm 5 mps 747 mmHg 63%
    08:00 +28°C° 0 mm 6 mps 747 mmHg 60%
    09:00 +29°C° 0 mm 6 mps 747 mmHg 56%
    10:00 +30°C° 0 mm 6 mps 748 mmHg 52%
    11:00 +30°C° 0 mm 6 mps 748 mmHg 49%
    12:00 +30°C° 0.2 mm 6 mps 748 mmHg 50%
    13:00 +30°C° 0.2 mm 6 mps 747 mmHg 51%
    14:00 +30°C° 0.2 mm 6 mps 747 mmHg 52%
    15:00 +30°C° 0.4 mm 6 mps 748 mmHg 57%
    16:00 +29°C° 0.4 mm 5 mps 748 mmHg 61%
    17:00 +28°C° 0.4 mm 5 mps 748 mmHg 66%
    18:00 +27°C° 0.2 mm 4 mps 749 mmHg 68%
    19:00 +27°C° 0.2 mm 4 mps 749 mmHg 71%
    20:00 +26°C° 0.2 mm 4 mps 750 mmHg 73%
    21:00 +26°C° 0 mm 4 mps 750 mmHg 73%
    22:00 +25°C° 0 mm 4 mps 750 mmHg 73%
    23:00 +25°C° 0 mm 4 mps 750 mmHg 72%

    28 September, Friday

    Time Temperature Precipitation Wind Pressure Humidity
    00:00 +25°C° 0 mm 4 mps 750 mmHg 72%
    01:00 +23°C° 0 mm 4 mps 750 mmHg 71%
    02:00 +23°C° 0 mm 4 mps 750 mmHg 71%
    03:00 +24°C° 0 mm 3 mps 751 mmHg 71%
    04:00 +22°C° 0 mm 3 mps 751 mmHg 72%
    05:00 +23°C° 0 mm 2 mps 751 mmHg 72%
    06:00 +24°C° 0 mm 2 mps 751 mmHg 67%
    07:00 +25°C° 0 mm 2 mps 752 mmHg 62%
    08:00 +26°C° 0 mm 2 mps 752 mmHg 56%
    09:00 +27°C° 0 mm 2 mps 752 mmHg 51%
    10:00 +28°C° 0 mm 2 mps 752 mmHg 46%
    11:00 +29°C° 0 mm 3 mps 753 mmHg 41%
    12:00 +30°C° 0 mm 3 mps 752 mmHg 41%
    13:00 +30°C° 0 mm 3 mps 752 mmHg 41%
    14:00 +30°C° 0 mm 4 mps 752 mmHg 41%
    15:00 +29°C° 0 mm 4 mps 752 mmHg 45%
    16:00 +29°C° 0 mm 4 mps 752 mmHg 48%
    17:00 +28°C° 0 mm 4 mps 752 mmHg 51%
    18:00 +27°C° 0 mm 3 mps 752 mmHg 55%
    19:00 +27°C° 0 mm 3 mps 752 mmHg 58%
    20:00 +26°C° 0 mm 3 mps 753 mmHg 62%
    21:00 +26°C° 0 mm 3 mps 752 mmHg 64%
    22:00 +25°C° 0 mm 2 mps 752 mmHg 66%
    23:00 +25°C° 0 mm 2 mps 752 mmHg 68%
    Show more